Fort Huachuca, AZ

7:57 PM MST on January 22, 2017 (GMT -0700)
Sierra Vista Municipal-Libby Army Air Field

Weather History for KFHU - June, 2012

Change the Weather History Date:

Monday, June 4, 2012

  Actual Average Record
Temperature  
Mean Temperature 78 °F -  
Max Temperature 91 °F 87 °F 103 °F (1990)
Min Temperature 64 °F 66 °F 51 °F (1985)
Cooling Degree Days 12    
Growing Degree Days 28 (Base 50)    
Moisture  
Dew Point 24 °F    
Average Humidity 15    
Maximum Humidity 28    
Minimum Humidity 7    
Precipitation  
Precipitation 0.00 in - - ()
Sea Level Pressure  
Sea Level Pressure 29.87 in    
Wind  
Wind Speed 6 mph (WSW)    
Max Wind Speed 18 mph    
Max Gust Speed 25 mph    
Visibility 10 miles    
Events      
Averages and records for this station are not official NWS values.
T = Trace of Precipitation, MM = Missing Value Source: NWS Daily Summary

Daily Weather History Graph

Daily Weather History Graph

Search for Another Location

Airport or City:

Trip Planner

Search our weather history database for the weather conditions in past years. The results will help you decide how hot, cold, wet, or windy it might be!

Date:

Astronomy

Jun. 04, 2012 Rise Set
Actual Time 5:16 AM MST 7:23 PM MST
Civil Twilight 4:48 AM MST 7:51 PM MST
Nautical Twilight 4:14 AM MST 8:25 PM MST
Astronomical Twilight 3:38 AM MST 9:01 PM MST
Moon 7:57 PM MST (6/4) 5:26 AM MST (6/4)
Length of Visible Light 15h 02m
Length of Day
14h 07m
Full, 100% of the Moon is Illuminated
Jun 4
Full
Jun 11
Last Quarter
Jun 19
New
Jun 26
First Quarter
Jul 3
Full

Hourly Weather History & Observations

Time (MST) Temp. Dew Point Humidity Pressure Visibility Wind Dir Wind Speed Gust Speed Precip Events Conditions
12:56 AM 73.0 °F 28.0 °F 19% 29.88 in 10.0 mi Calm Calm - N/A   Clear
1:56 AM 72.0 °F 28.9 °F 20% 29.87 in 10.0 mi WSW 4.6 mph - N/A   Clear
2:56 AM 66.9 °F 28.0 °F 23% 29.87 in 10.0 mi Calm Calm - N/A   Clear
3:56 AM 66.0 °F 25.0 °F 21% 29.88 in 10.0 mi SE 3.5 mph - N/A   Clear
4:56 AM 64.9 °F 28.0 °F 25% 29.90 in 10.0 mi ESE 5.8 mph - N/A   Clear
5:55 AM 66.2 °F 28.4 °F 24% 30.10 in 10.0 mi Variable 2.3 mph - N/A   Partly Cloudy
6:55 AM 66.2 °F 30.2 °F 26% 30.11 in 10.0 mi Variable 2.3 mph - N/A   Partly Cloudy
7:55 AM 66.2 °F 32.0 °F 28% 29.92 in 10.0 mi Variable 2.3 mph - N/A   Clear
8:55 AM 77.0 °F 30.2 °F 18% 29.93 in 10.0 mi Variable 4.6 mph - N/A   Clear
9:55 AM 82.4 °F 30.2 °F 15% 29.92 in 10.0 mi Variable 5.8 mph - N/A   Clear
10:55 AM 84.2 °F 26.6 °F 12% 29.89 in 10.0 mi Variable 3.5 mph - N/A   Clear
11:55 AM 87.8 °F 19.4 °F 8% 29.88 in 10.0 mi Variable 4.6 mph - N/A   Clear
12:55 PM 89.6 °F 17.6 °F 7% 29.87 in 10.0 mi WSW 16.1 mph 23.0 mph N/A   Clear
1:55 PM 91.4 °F 17.6 °F 7% 29.84 in 10.0 mi WSW 10.4 mph 18.4 mph N/A   Clear
2:55 PM 91.4 °F 19.4 °F 7% 29.83 in 10.0 mi WNW 16.1 mph 25.3 mph N/A   Clear
3:55 PM 91.4 °F 17.6 °F 7% 29.82 in 10.0 mi West 18.4 mph 23.0 mph N/A   Clear
4:55 PM 91.4 °F 19.4 °F 7% 29.80 in 10.0 mi West 10.4 mph 20.7 mph N/A   Clear
5:55 PM 89.6 °F 19.4 °F 8% 29.79 in 10.0 mi WSW 13.8 mph 21.9 mph N/A   Clear
6:55 PM 86.0 °F 19.4 °F 9% 29.80 in 10.0 mi West 15.0 mph - N/A   Clear
7:55 PM 82.4 °F 17.6 °F 9% 29.80 in 10.0 mi WSW 12.7 mph - N/A   Clear
8:55 PM 80.6 °F 17.6 °F 10% 29.81 in 10.0 mi WSW 15.0 mph - N/A   Clear
9:55 PM 78.8 °F 19.4 °F 11% 29.83 in 10.0 mi WSW 10.4 mph - N/A   Clear
10:55 PM 77.0 °F 28.4 °F 17% 29.82 in 10.0 mi WSW 13.8 mph - N/A   Clear
11:56 PM 73.9 °F 28.0 °F 18% 29.82 in 10.0 mi West 16.1 mph - N/A   Clear